sat.trackr.live / text

‹ back to catalog

STARLINK-34851

NORAD 66447 · 2025-259AB

PAYLOAD ACTIVE UNKNOWN

§ Identity

Operator
Country
US
Launch date
2025-11-11
Launch site
AFETR
Launch vehicle
Mass (kg)
RCS (m²)

Purposes: comms

External: N2YO · Heavens-Above · Gunter

§ Orbital elements

Epoch: 2026-05-25T04:10:12.342144Z

Period
94.27 min
Inclination
42.9977°
Eccentricity
0.0000745
Mean motion
15.27590310 rev/d
Perigee alt
482.5 km
Apogee alt
483.5 km
Semi-major
6,861.2 km
B*
3.9398e-4
RAAN
202.8204°
Arg perigee
275.1915°
Mean anomaly
84.8851°
Rev number
3,107

§ Raw data

STARLINK-348511 66447U 25259AB  26145.17375396  .00010599  00000+0  39398-3 0  99972 66447  42.9977 202.8204 0000745 275.1915  84.8851 15.27590310 31079

JSON: /api/v1/satellites/66447 · /tle

For live sub-satellite position, see the globe view (requires WebGL).

§ Visibility from observer

Set your observer location to see the next 7 days of passes ≥ 10°. The values pass through the URL so the page stays shareable.

No JS? Fill the form by hand. The geolocation button needs JavaScript.